[[{"header":{"parameterUnit":"m.s-1","parameterCategory":1,"la1":30.2991,"la2":30.254,"lo1":-89.0895,"lo2":-89.0444,"dy":0.0017,"dx":0.0017,"nx":28,"ny":28,"refTime":"2024-12-05T03:00:00:Z","depth":0,"parameterNumber":2,"parameterNumberName":"U-component_of_WINDS"},"data":[0,0,0,0,0,0,0,0,0,0,0,0,0,0,0,0,0,0,0,0,0,0,0,0,0,0,0,0,0,0,0,0,0,0,0,0,0,0,0,0,0,0,0,0,0,0,0,0,0,0,0,0,0,0,0,0,0,0,-0.2804,-0.2804,0,-0.2777,-0.2777,-0.2776,-0.2793,-0.2794,-0.2794,-0.2795,-0.2765,-0.2763,-0.2762,0,0,0,0,0,0,0,0,0,0,0,0,0,-0.2867,-0.2865,-0.2804,-0.2804,-0.2804,-0.2777,-0.2777,-0.2776,-0.2793,-0.2794,-0.2795,-0.2796,-0.2765,-0.2764,-0.2762,0,0,0,0,0,0,0,0,0,0,0,0,0,-0.2839,-0.2865,-0.2804,-0.2809,-0.2809,-0.2777,-0.2777,-0.2776,-0.2793,-0.2794,-0.2795,-0.2796,-0.2766,-0.2764,-0.2762,-0.2723,0,0,-0.2754,-0.2753,0,0,0,0,0,0,0,0,-0.2841,-0.2837,-0.2808,-0.2808,-0.2808,-0.279,-0.2787,-0.2758,-0.2792,-0.2799,-0.2795,-0.2797,-0.2772,-0.2769,-0.2761,-0.2722,-0.2721,-0.2754,-0.2753,-0.2752,-0.2751,0,0,0,0,0,0,0,-0.2843,-0.2838,-0.2793,-0.2808,-0.2808,-0.2811,-0.2808,-0.2782,-0.2779,-0.2798,-0.2799,-0.2796,-0.2772,-0.2764,-0.2761,-0.272,-0.2754,-0.2752,-0.2751,-0.275,-0.2644,-0.2642,0,0,0,0,0,0,-0.2845,-0.284,-0.2794,-0.2793,-0.2828,-0.2809,-0.2806,-0.2794,-0.2779,-0.2778,-0.2795,-0.2797,-0.2767,-0.2764,-0.276,-0.2711,-0.2752,-0.275,-0.2748,-0.2645,-0.2643,-0.2642,0,0,0,0,0,0,-0.2846,-0.2841,-0.2795,-0.2816,-0.2811,-0.2806,-0.2793,-0.2793,-0.2785,-0.2777,-0.2776,-0.2787,-0.2768,-0.2763,-0.2732,-0.2711,-0.2749,-0.2746,-0.2647,-0.2645,-0.2643,-0.2616,0,0,0,0,0,0,-0.2848,-0.2841,-0.2828,-0.2816,-0.281,-0.2769,-0.2792,-0.2792,-0.2781,-0.2783,-0.2769,-0.2768,-0.2768,-0.2735,-0.2729,-0.2708,-0.2745,-0.2649,-0.2646,-0.2643,-0.2619,-0.2613,-0.2609,0,0,0,0,0,-0.285,-0.2821,-0.2827,-0.2821,-0.2793,-0.2768,-0.2764,-0.2766,-0.2779,-0.2765,-0.2759,-0.2768,-0.2714,-0.2732,-0.2725,-0.2703,-0.265,-0.2647,-0.2644,-0.2621,-0.2614,-0.2609,0,0,0,0,0,0,-0.2831,-0.282,-0.2826,-0.2793,-0.2781,-0.277,-0.2752,-0.2759,-0.2742,-0.2745,-0.2747,-0.2744,-0.271,-0.2704,-0.2723,-0.2664,-0.2684,-0.2679,-0.2669,-0.2663,-0.2658,-0.2659,-0.2743,0,0,0,0,0,-0.2822,-0.2804,-0.2795,-0.2767,-0.2761,-0.2757,-0.2746,-0.2749,-0.2736,-0.2731,-0.2723,-0.271,-0.2689,-0.2676,-0.2657,-0.2618,-0.2613,-0.2599,-0.2594,-0.259,-0.2586,-0.2561,-0.2554,-0.2631,-0.2631,-0.2631,0,0,-0.2806,-0.2797,-0.2786,-0.2763,-0.2754,-0.2732,-0.2753,-0.2731,-0.2714,-0.2727,-0.2696,-0.269,-0.2675,-0.2638,-0.2622,-0.2632,-0.2563,-0.2586,-0.2583,-0.2581,-0.2557,-0.255,-0.2544,-0.2629,-0.263,-0.263,0,0,-0.2763,-0.2757,-0.2731,-0.2721,-0.2707,-0.2704,-0.2698,-0.2686,-0.2682,-0.2651,-0.266,-0.2639,-0.2605,-0.2593,-0.2582,-0.2532,-0.2539,-0.2526,-0.2499,-0.2475,-0.2469,-0.2464,-0.2443,-0.2436,-0.2522,-0.2522,-0.2522,0,-0.2744,-0.2713,-0.2717,-0.2693,-0.2681,-0.2692,-0.2664,-0.2654,-0.2634,-0.2625,-0.2637,-0.2592,-0.2583,-0.2542,-0.253,-0.2522,-0.2512,-0.2528,-0.247,-0.2465,-0.246,-0.244,-0.2433,-0.252,-0.2521,-0.2521,-0.2521,0,-0.2689,-0.2667,-0.2648,-0.2628,-0.2614,-0.2589,-0.2586,-0.2572,-0.2574,-0.257,-0.2537,-0.2526,-0.2503,-0.2494,-0.2497,-0.2453,-0.2459,-0.247,-0.2491,-0.2451,-0.2432,-0.2425,-0.2518,-0.2519,-0.2519,-0.2519,0,0,-0.2634,-0.2615,-0.2608,-0.2597,-0.2581,-0.2564,-0.2538,-0.2516,-0.2502,-0.2487,-0.2464,-0.2433,-0.2442,-0.243,-0.2431,-0.2411,-0.2368,-0.2424,-0.2424,-0.2412,-0.2315,-0.2305,-0.2297,-0.2373,-0.2372,-0.2371,-0.2316,0,-0.2589,-0.2544,-0.2545,-0.2502,-0.2481,-0.2489,-0.2466,-0.2452,-0.2447,-0.2426,-0.242,-0.2397,-0.2413,-0.2405,-0.2386,-0.2378,-0.2348,-0.2382,-0.2348,-0.2347,-0.235,-0.2288,-0.2278,-0.2227,-0.2309,-0.2308,-0.2307,0,-0.2532,-0.2514,-0.2469,-0.2454,-0.2444,-0.2424,-0.2402,-0.2383,-0.2367,-0.2364,-0.2349,-0.2353,-0.2323,-0.2345,-0.2303,-0.2326,-0.2312,-0.2305,-0.2303,-0.2299,-0.2323,-0.2279,-0.2211,-0.2202,-0.2296,-0.2297,-0.2297,0,-0.2493,-0.2459,-0.2427,-0.2418,-0.24,-0.2384,-0.2375,-0.2361,-0.2346,-0.2327,-0.2317,-0.2295,-0.2282,-0.2263,-0.2259,-0.2276,-0.2216,-0.2239,-0.2211,-0.2211,-0.2197,-0.2197,-0.2123,-0.2191,-0.2192,-0.2192,-0.2192,0,-0.2442,-0.2413,-0.2409,-0.2389,-0.2356,-0.2356,-0.2323,-0.2316,-0.2302,-0.2279,-0.2285,-0.2263,-0.2261,-0.2237,-0.2234,-0.2198,-0.2193,-0.2188,-0.2187,-0.2186,-0.2186,-0.2176,-0.2178,-0.219,-0.219,-0.2191,-0.2191,0,-0.2393,-0.239,-0.2355,-0.234,-0.2335,-0.2311,-0.2297,-0.2277,-0.2272,-0.2242,-0.2235,-0.2226,-0.2199,-0.2193,-0.2161,-0.2159,-0.2115,-0.2119,-0.212,-0.212,-0.2091,-0.2093,-0.2006,-0.1993,-0.2072,-0.2072,-0.2071,0,-0.236,-0.2338,-0.232,-0.2306,-0.2296,-0.2273,-0.2258,-0.2256,-0.224,-0.2218,-0.2199,-0.2173,-0.2151,-0.2106,-0.2096,-0.207,-0.2072,-0.2043,-0.2068,-0.2066,-0.2068,-0.2068,-0.2064,-0.2037,-0.2037,-0.2036,-0.2035,0,-0.2301,-0.2299,-0.2278,-0.2255,-0.2237,-0.2219,-0.2202,-0.2189,-0.2185,-0.2166,-0.2138,-0.2121,-0.2087,-0.2059,-0.2032,-0.2022,-0.2026,-0.2028,-0.2019,-0.2017,-0.2018,-0.2014,-0.2105,-0.2029,-0.203,-0.203,-0.2031,-0.2031,-0.2257,-0.2237,-0.222,-0.2195,-0.2182,-0.2165,-0.2144,-0.2136,-0.2113,-0.2085,-0.2085,-0.2053,-0.2034,-0.2,-0.1987,-0.1961,-0.197,-0.1959,-0.1955,-0.1952,-0.1948,-0.2024,-0.1956,-0.1956,-0.1957,-0.1957,-0.1957,0,-0.2196,-0.2185,-0.2162,-0.2137,-0.2117,-0.2124,-0.2104,-0.2086,-0.2059,-0.2041,-0.2019,-0.1985,-0.1957,-0.1944,-0.1915,-0.1897,-0.1898,-0.1889,-0.1889,-0.1886,-0.1943,-0.1952,-0.1888,-0.1888,-0.1888,-0.1888,-0.1888,-0.1888,-0.2161,-0.2126,-0.2122,-0.2079,-0.2068,-0.2038,-0.2025,-0.2008,-0.1994,-0.1956,-0.1933,-0.1924,-0.1907,-0.1877,-0.1851,-0.1848,-0.1836,-0.1825,-0.1822,-0.1876,-0.1882,-0.1889,-0.1897,-0.1823,-0.1823,-0.1767,-0.1767,-0.1767]},{"header":{"parameterUnit":"m.s-1","parameterCategory":1,"la1":30.2991,"la2":30.254,"lo1":-89.0895,"lo2":-89.0444,"dy":0.0017,"dx":0.0017,"nx":28,"ny":28,"refTime":"2024-12-05T03:00:00:Z","depth":0,"parameterNumber":3,"parameterNumberName":"V-component_of_WINDS"},"data":[0,0,0,0,0,0,0,0,0,0,0,0,0,0,0,0,0,0,0,0,0,0,0,0,0,0,0,0,0,0,0,0,0,0,0,0,0,0,0,0,0,0,0,0,0,0,0,0,0,0,0,0,0,0,0,0,0,0,-5.8302,-5.8301,0,-5.818,-5.8178,-5.8177,-5.808,-5.8079,-5.8078,-5.8077,-5.7938,-5.7936,-5.7933,0,0,0,0,0,0,0,0,0,0,0,0,0,-5.844,-5.8438,-5.8302,-5.8301,-5.8299,-5.818,-5.8178,-5.8176,-5.808,-5.8079,-5.8078,-5.8077,-5.7939,-5.7936,-5.7932,0,0,0,0,0,0,0,0,0,0,0,0,0,-5.8355,-5.8438,-5.8302,-5.8237,-5.823,-5.818,-5.8178,-5.8176,-5.808,-5.8079,-5.8077,-5.8076,-5.794,-5.7936,-5.7932,-5.7933,0,0,-5.7919,-5.7917,0,0,0,0,0,0,0,0,-5.836,-5.835,-5.8248,-5.8241,-5.8233,-5.8144,-5.8176,-5.8094,-5.8081,-5.8137,-5.8077,-5.8075,-5.8007,-5.7997,-5.7977,-5.7927,-5.7921,-5.7919,-5.7916,-5.7914,-5.7913,0,0,0,0,0,0,0,-5.8366,-5.8355,-5.8253,-5.8247,-5.8238,-5.821,-5.8196,-5.816,-5.808,-5.8132,-5.8124,-5.8112,-5.8002,-5.7981,-5.7973,-5.7919,-5.7919,-5.7915,-5.7912,-5.7911,-5.7862,-5.7863,0,0,0,0,0,0,-5.8384,-5.836,-5.8257,-5.8249,-5.8295,-5.8208,-5.8193,-5.8174,-5.8081,-5.8066,-5.8113,-5.8108,-5.7989,-5.7978,-5.7967,-5.7962,-5.7914,-5.791,-5.7908,-5.786,-5.7862,-5.7863,0,0,0,0,0,0,-5.8387,-5.8376,-5.8262,-5.8303,-5.8286,-5.8208,-5.8186,-5.8172,-5.8151,-5.8067,-5.8051,-5.8107,-5.7987,-5.7973,-5.7943,-5.7956,-5.7908,-5.7904,-5.7859,-5.7861,-5.7863,-5.7952,0,0,0,0,0,0,-5.8392,-5.8378,-5.838,-5.8304,-5.8285,-5.8244,-5.8187,-5.8171,-5.8145,-5.8137,-5.8057,-5.8042,-5.7985,-5.795,-5.7939,-5.7949,-5.7901,-5.7857,-5.786,-5.7862,-5.7948,-5.7957,-5.7965,0,0,0,0,0,-5.8397,-5.8407,-5.8381,-5.8369,-5.8287,-5.8245,-5.8233,-5.8172,-5.8147,-5.8147,-5.8093,-5.8044,-5.7957,-5.7948,-5.7934,-5.7944,-5.7856,-5.7859,-5.7862,-5.7944,-5.7955,-5.7964,0,0,0,0,0,0,-5.8482,-5.8396,-5.8366,-5.8353,-5.8308,-5.8229,-5.8227,-5.8186,-5.8143,-5.8137,-5.8058,-5.8041,-5.8019,-5.7977,-5.7969,-5.7939,-5.79,-5.79,-5.7967,-5.7977,-5.7985,-5.7995,-5.7898,0,0,0,0,0,-5.8501,-5.8478,-5.8402,-5.8397,-5.8377,-5.8307,-5.8286,-5.8243,-5.8191,-5.817,-5.8113,-5.8061,-5.8022,-5.7997,-5.7956,-5.7942,-5.7921,-5.7941,-5.7949,-5.7957,-5.7957,-5.7945,-5.7952,-5.7873,-5.7873,-5.7873,0,0,-5.8536,-5.8486,-5.8476,-5.8413,-5.8373,-5.8348,-5.8291,-5.8266,-5.8245,-5.8164,-5.8133,-5.8091,-5.8026,-5.8005,-5.7991,-5.7969,-5.7975,-5.796,-5.7967,-5.7963,-5.7949,-5.7956,-5.7963,-5.7874,-5.7874,-5.7874,0,0,-5.8588,-5.8549,-5.8541,-5.8503,-5.8445,-5.8398,-5.8396,-5.8324,-5.8294,-5.8263,-5.8202,-5.8173,-5.8108,-5.8065,-5.8034,-5.8071,-5.8023,-5.8059,-5.8103,-5.8092,-5.8098,-5.8103,-5.8114,-5.812,-5.806,-5.806,-5.806,0,-5.8638,-5.8602,-5.8541,-5.8521,-5.8494,-5.8425,-5.8414,-5.8379,-5.8308,-5.8289,-5.8267,-5.8183,-5.8135,-5.8101,-5.8111,-5.8089,-5.8081,-5.8067,-5.8103,-5.8107,-5.8111,-5.8121,-5.8126,-5.8065,-5.8064,-5.8064,-5.8064,0,-5.8666,-5.8641,-5.8641,-5.858,-5.8553,-5.8537,-5.8471,-5.845,-5.8409,-5.8364,-5.8331,-5.8272,-5.8218,-5.8206,-5.8164,-5.8166,-5.8154,-5.8119,-5.8077,-5.8124,-5.8132,-5.8136,-5.8072,-5.807,-5.8069,-5.8067,0,0,-5.8766,-5.8674,-5.8675,-5.8646,-5.8577,-5.8554,-5.8534,-5.8486,-5.8469,-5.8422,-5.8401,-5.8348,-5.8315,-5.828,-5.8233,-5.8223,-5.8254,-5.8188,-5.8185,-5.8201,-5.825,-5.8276,-5.8282,-5.8224,-5.8224,-5.8225,-5.8255,0,-5.8806,-5.8772,-5.8717,-5.8698,-5.8673,-5.8607,-5.8589,-5.8543,-5.85,-5.8469,-5.8418,-5.8382,-5.8342,-5.8321,-5.8309,-5.8254,-5.8263,-5.8251,-5.8199,-5.8198,-5.8217,-5.8286,-5.8314,-5.8345,-5.8257,-5.8258,-5.8258,0,-5.8848,-5.881,-5.8791,-5.8724,-5.8711,-5.8697,-5.8648,-5.862,-5.8565,-5.8534,-5.8497,-5.8446,-5.8417,-5.8382,-5.8339,-5.8332,-5.8307,-5.8277,-5.8277,-5.8268,-5.823,-5.8278,-5.8354,-5.8358,-5.8263,-5.8262,-5.8262,0,-5.8922,-5.8866,-5.8847,-5.8824,-5.8746,-5.8737,-5.8703,-5.8647,-5.8622,-5.8577,-5.8559,-5.851,-5.8483,-5.8444,-5.838,-5.836,-5.8343,-5.8302,-5.8313,-5.8314,-5.8311,-5.8311,-5.8383,-5.8298,-5.8298,-5.8298,-5.8298,0,-5.8971,-5.8961,-5.8879,-5.8867,-5.8853,-5.8789,-5.8775,-5.8735,-5.8686,-5.8661,-5.86,-5.8578,-5.8496,-5.8462,-5.8412,-5.8383,-5.8371,-5.8342,-5.8328,-5.8347,-5.835,-5.8328,-5.8323,-5.8299,-5.8299,-5.8298,-5.8298,0,-5.9051,-5.8996,-5.8971,-5.8901,-5.8882,-5.8875,-5.8812,-5.8796,-5.8751,-5.8721,-5.871,-5.8636,-5.8594,-5.8527,-5.8463,-5.8429,-5.8408,-5.8386,-5.8429,-5.842,-5.8434,-5.8433,-5.8492,-5.8495,-5.8411,-5.8412,-5.8412,0,-5.9086,-5.9077,-5.9007,-5.899,-5.8959,-5.893,-5.8905,-5.884,-5.8816,-5.8753,-5.8743,-5.8698,-5.8657,-5.8592,-5.8529,-5.848,-5.8455,-5.848,-5.8447,-5.8466,-5.8454,-5.8455,-5.8452,-5.8486,-5.8488,-5.8489,-5.849,0,-5.9152,-5.9126,-5.9095,-5.9054,-5.9026,-5.8989,-5.8949,-5.8936,-5.8862,-5.8836,-5.8796,-5.8765,-5.8702,-5.8656,-5.8599,-5.8558,-5.851,-5.8501,-5.85,-5.8518,-5.8543,-5.8528,-5.8448,-5.8499,-5.8498,-5.8498,-5.8497,-5.8497,-5.9209,-5.9199,-5.9149,-5.9115,-5.9079,-5.9043,-5.9025,-5.8978,-5.8945,-5.8892,-5.8855,-5.8816,-5.8758,-5.8677,-5.8639,-5.8604,-5.8583,-5.8583,-5.8582,-5.8583,-5.8589,-5.8551,-5.8593,-5.8593,-5.8592,-5.8592,-5.8592,0,-5.9271,-5.9237,-5.9207,-5.9155,-5.9128,-5.9091,-5.9044,-5.9022,-5.8991,-5.8944,-5.8907,-5.8859,-5.8814,-5.8749,-5.8698,-5.8682,-5.8659,-5.8671,-5.867,-5.8661,-5.8611,-5.8617,-5.8691,-5.8691,-5.8691,-5.8691,-5.8691,-5.8691,-5.9301,-5.9281,-5.9249,-5.9209,-5.9172,-5.9138,-5.9114,-5.9079,-5.9042,-5.8993,-5.8957,-5.8917,-5.8862,-5.8806,-5.8762,-5.8744,-5.8727,-5.8745,-5.872,-5.8674,-5.8665,-5.8656,-5.866,-5.8743,-5.8743,-5.8772,-5.8772,-5.8773]}]]